Regional Weather Roundup
Issued by NWS Kansas City/Pleasant Hill, MO

Home | Current Version | Previous Version | Graphics & Text | Print | Product List | Glossary Off
Versions: 1 2 3 4 5 6 7 8 9 10 11 12 13 14 15 16 17 18 19 20 21 22 23 24 25 26 27 28 29 30 31 32 33 34 35 36 37 38 39 40 41 42 43 44 45 46 47 48 49 50

000
ASUS43 KEAX 251110
RWREAX

WEATHER ROUNDUP FOR EASTERN KANSAS AND NORTHWEST MISSOURI
NATIONAL WEATHER SERVICE KANSAS CITY/PLEASANT HILL MO
600 AM CDT SAT OCT 25 2014

KSZ040-057-103>105-MOZ028-029-037-043-251200-
...KANSAS CITY METROPOLITAN AREA...

CITY           SKY/WX    TMP DP  RH WIND       PRES   REMARKS
K.C. INTL      FOG       55  53  93 CALM      30.03R VSB 1/4
K.C. DOWNTOWN  FOG       57  55  93 CALM      30.03R VSB 1/4
LEES SUMMIT    FOG       58  57  97 SW3       30.04R VSB 1/4
OLATHE - IXD   CLEAR     55  55 100 CALM      30.04R FOG
OLATHE - OJC   CLEAR     57  57 100 CALM      30.03S FOG
LAWRENCE       FOG       49  48  97 W5        30.03S VSB 1/2

$$

MOZ001>008-011>017-020>025-030>033-038>040-044>046-053-054-251200-
...NORTHERN AND CENTRAL MISSOURI...

CITY           SKY/WX    TMP DP  RH WIND       PRES   REMARKS
ST. JOSEPH     FOG       48  48 100 CALM      30.05R VSB 1/4
MOSBY          FOG       54  54 100 CALM      30.04R VSB<1/4
WHITEMAN AFB   CLEAR     58  56  95 W5        30.02R
CLINTON        CLEAR     59  59 100 SW3       30.04R FOG
SEDALIA        CLEAR     61  58  90 SW5       30.03R
WARSAW         NOT AVBL
MARSHALL       CLEAR     61  61 100 CALM      30.03R FOG
CHILLICOTHE      N/A     53  52  96 CALM      30.03R
MOBERLY        FOG       59  55  88 W6        30.02R VSB 1/2
KIRKSVILLE     FOG       53  53 100 W5        30.02R VSB 1/4

$$

MOZ041-047>049-056>058-063>065-088>090-097-251200-
...EASTERN AND SOUTHERN MISSOURI...

CITY           SKY/WX    TMP DP  RH WIND       PRES   REMARKS
ST. LOUIS INTL PTCLDY    59  56  89 W3        30.01R
SPIRIT OF STL  CLEAR     57  56  96 NE3       30.00R
COLUMBIA       CLEAR     59  58  96 NW5       30.02R
JEFFERSON CITY FOG       54  53  97 CALM      30.02R VSB 1/4
MEXICO         CLEAR    N/A N/A N/A W6        30.02R HAZE
HANNIBAL       CLEAR     59  57  94 NW3       30.01R FOG
ROLLA          CLEAR     58  56  93 W8        30.02R
LEBANON        CLEAR     64  59  82 W10       30.06R
OSAGE BEACH    CLEAR     57  55  94 CALM      30.04R
SPRINGFIELD    CLEAR     64  59  83 W9        30.05S
BRANSON        CLEAR     63  59  88 W7        30.09S
NEVADA           N/A     55  55 100 CALM      30.06S FOG
JOPLIN         CLEAR     62  59  90 SW9       30.07R
WEST PLAINS    CLEAR     58  56  93 W9        30.08R

$$

IAZ060-094-KSZ022-034>040-054-083-096-NEZ052-066-093-251200-
...KANSAS...SOUTHEAST NEBRASKA AND IOWA...

CITY           SKY/WX    TMP DP  RH WIND       PRES   REMARKS
TOPEKA         FOG       53  53 100 CALM      30.04R VSB 1/4
MANHATTAN      FOG       53  53 100 CALM      30.03R VSB<1/4
EMPORIA        FOG       53  53 100 S6        30.04R VSB 1/4
CHANUTE        FOG       55  55 100 CALM      30.05R VSB 1/4
WICHITA        FOG       55  53  93 CALM      30.03S VSB 1/4
OMAHA          CLEAR     50  47  89 N9        30.05R
LINCOLN        CLEAR     46  43  89 NW3       30.07R
FALLS CITY     FOG       48  48 100 NW5       30.04R VSB 3/4
LAMONI           N/A     51  49  92 NW6       30.03R
DES MOINES     CLEAR     54  47  77 N9        30.02R

$$




USA.gov is the U.S. government's official web portal to all federal, state and local government web resources and services.